AirNav   Everest Fuels
 
 1455 users online  

63K Hillside Airport
Stilwell, Kansas, USA

GOING TO STILWELL?


FAA INFORMATION EFFECTIVE 21 MAY 2020

Location

FAA Identifier: 63K
Lat/Long: 38-49-16.5000N 094-36-34.3000W
38-49.275000N 094-36.571667W
38.8212500,-94.6095278
(estimated)
Elevation: 1025 ft. / 312 m (estimated)
Variation: 05E (1985)
From city: 4 miles NE of STILWELL, KS
Time zone: UTC -5 (UTC -6 during Standard Time)
Zip code: 66085

Airport Operations

Airport use: Open to the public
Activation date: 01/1956
Control tower: no
ARTCC: KANSAS CITY CENTER
FSS: COLUMBIA FLIGHT SERVICE STATION
NOTAMs facility: COU (NOTAM-D service available)
Attendance: UNATNDD
Wind indicator: yes
Segmented circle: no

Airport Communications

CTAF: 122.9
WX ASOS at OJC (6 nm W): 119.35 (913-780-6969)
WX ASOS at IXD (13 nm W): 135.325 (913-780-6987)
WX ASOS at LXT (14 nm NE): 124.175 (816-347-9807)
WX AWOS-3PT at LRY (18 nm SE): 119.975 (816-380-5936)
WX ASOS at MKC (18 nm N): PHONE 816-329-2843

Nearby radio navigation aids

VOR radial/distance  VOR name  Freq  Var
ANXr227/27.8NAPOLEON VORTAC114.0007E
MCIr163/28.5KANSAS CITY VORTAC113.2505E
BUMr343/33.4BUTLER VORTAC115.9007E

 
NDB name  Hdg/Dist  Freq  Var  ID
HERBB052/7.242004EPK .--. -.-

Airport Services

Parking: tiedowns
Airframe service: NONE
Powerplant service: NONE
Bottled oxygen: NONE
Bulk oxygen: NONE

Runway Information

Runway 17/35

Dimensions: 2000 x 56 ft. / 610 x 17 m
Surface: turf/gravel, in fair condition
RWY ROUGH 550 FT FM AER 35.
RUNWAY 17  RUNWAY 35
Latitude: 38-49.439000N38-49.109500N
Longitude: 094-36.571500W094-36.572667W
Traffic pattern: rightleft
Displaced threshold: no150 ft.
Obstructions: 51 ft. trees, 149 ft. from runway, 58 ft. right of centerline, 2:1 slope to clear33 ft. trees, 197 ft. from runway, 92 ft. right of centerline, 5:1 slope to clear

Airport Ownership and Management from official FAA records

Ownership: Privately-owned
Owner: W. SHELDON/TOM TIETZE
16885 S. KENNETH RD
STILWELL, KS 66085
Manager: WILLIAM C. SHELDON
16935 S. KENNETH RD
STILWELL, KS 66085
Phone 913-897-2647

Airport Operational Statistics

Aircraft based on the field: 5
Single engine airplanes: 4
Ultralights: 1
    
Aircraft operations: avg 83/month *
65% local general aviation
35% transient general aviation
* for 12-month period ending 31 July 2019

Additional Remarks

WILDLIFE ON & INVOF ARPT.
TREES AND UNEVEN TERRAIN BOTH SIDES OF RWY. TREES IN APCH ZONES.
+10 EARTH EMBANKMENT MID FLD, WEST DGE OF RWY.
FOR CD CTC KANSAS CITY APCH AT 816-329-2710.

Instrument Procedures

There are no published instrument procedures at 63K.

Some nearby airports with instrument procedures:

KOJC - Johnson County Executive Airport (6 nm W)
KIXD - New Century AirCenter Airport (13 nm W)
KLXT - Lee's Summit Municipal Airport (14 nm NE)
KLRY - Lawrence Smith Memorial Airport (18 nm SE)
KMKC - Charles B Wheeler Downtown Airport (18 nm N)
 
Loc | Ops | Rwys | IFR | FBO | Links
Com | Nav | Svcs | Stats | Notes
Area around 63K (Hillside Airport)
 
Road maps at: MapQuest Bing Google
 
Aerial photo
WARNING: Photo may not be current or correct
Aerial photo of 63K (Hillside Airport)
Do you have a better or more recent aerial photo of Hillside Airport that you would like to share? If so, please send us your photo.

 
Sectional chart

 
Airport distance calculator
Flying to Hillside Airport? Find the distance to fly.

From to 63K

Sunrise and sunset
Times for 03-Jun-2020
 Local
(UTC-5)
 Zulu
(UTC)
Morning civil twilight05:2410:24
Sunrise05:5510:55
Sunset20:3801:38
Evening civil twilight21:1002:10

Current date and time
Zulu (UTC)  03-Jun-2020 15:28:43
Local (UTC-5)  03-Jun-2020 10:28:43
 
METAR
KOJC 
6nm W 
031453Z 23007G17KT 10SM FEW090 26/21 A2992 RMK AO2 SLP118 T02610211 50006
KIXD 
13nm W 
031453Z 22014KT 10SM FEW100 27/21 A2992 RMK AO2 SLP119 T02720206 50004
KLXT 
14nm NE 
031453Z AUTO 24012KT 10SM CLR 28/21 A2991 RMK AO2 SLP117 T02830206 50004
KMKC 
18nm N 
031454Z 23015G22KT 10SM CLR 28/20 A2988 RMK AO2 SLP108 T02780200 50001
KLRY 
18nm SE 
031515Z AUTO 24010G15KT 10SM SCT080 28/21 A2994 RMK AO2
TAF
KIXD 
13nm W 
031120Z 0312/0412 22009KT P6SM BKN200 FM031900 23007KT P6SM SCT100 FM032200 VRB05KT P6SM VCTS BKN040CB FM040200 VRB05KT P6SM BKN050 FM040600 VRB05KT P6SM VCTS BKN040CB
KMKC 
18nm N 
031120Z 0312/0412 23009KT P6SM BKN200 FM031900 VRB06KT P6SM SCT100 FM032100 VRB05KT P6SM VCTS BKN040CB FM040100 VRB05KT P6SM BKN050 FM040600 VRB05KT P6SM VCTS BKN040CB
NOTAMs
Click for the latest NOTAMs
NOTAMs are issued by the DoD/FAA and will open in a separate window not controlled by AirNav.

 

 
 

Would you like to see your business listed on this page?

 If your business provides an interesting product or service to pilots, flight crews, aircraft, or users of the Hillside Airport, you should consider listing it here.  To start the listing process, click on the button below
 
Add a business
 

Other Pages about Hillside Airport

Update a link
 
Copyright © AirNav, LLC. All rights reserved. Privacy Policy  Contact